This is the latest recevied weather packets stored in our database for station/object K3RTA-2. If no packets are shown the sender has not sent any weather packets the latest 10 day(s).
| Time | Temp. | Humidity | Pressure | Rain* | Wind** | Luminosity | Snow |
|---|---|---|---|---|---|---|---|
| 1778012404 | 27.78° C | 40% | 1011.3 hPa | 0 mm | - | - | - |
| 1778011805 | 28.33° C | 40% | 1011.4 hPa | 0 mm | - | - | - |
| 1778011504 | 28.33° C | 40% | 1011.4 hPa | 0 mm | - | - | - |
| 1778009705 | 28.89° C | 39% | 1011.8 hPa | 0 mm | - | - | - |
| 1778009103 | 28.89° C | 40% | 1011.8 hPa | 0 mm | - | - | - |
| 1778008504 | 29.44° C | 38% | 1011.7 hPa | 0 mm | - | - | - |
| 1778007904 | 28.89° C | 39% | 1011.9 hPa | 0 mm | - | - | - |
| 1778005504 | 28.89° C | 41% | 1012 hPa | 0 mm | - | - | - |
| 1778003704 | 28.33° C | 43% | 1012.5 hPa | 0 mm | - | - | - |
| 1778002805 | 28.33° C | 44% | 1012.6 hPa | 0 mm | - | - | - |
| 1778001904 | 27.78° C | 45% | 1012.7 hPa | 0 mm | - | - | - |
| 1777996804 | 26.67° C | 50% | 1013.4 hPa | 0 mm | - | - | - |
| 1777989905 | 23.33° C | 59% | 1013.4 hPa | 0 mm | - | - | - |
| 1777989305 | 23.33° C | 58% | 1013.4 hPa | 0 mm | - | - | - |
| 1777988704 | 22.78° C | 58% | 1013.4 hPa | 0 mm | - | - | - |
| 1777988105 | 22.22° C | 61% | 1013.4 hPa | 0 mm | - | - | - |
| 1777986004 | 21.11° C | 63% | 1013.4 hPa | 0 mm | - | - | - |
| 1777985704 | 21.11° C | 65% | 1013.3 hPa | 0 mm | - | - | - |
| 1777985404 | 21.11° C | 64% | 1013.3 hPa | 0 mm | - | - | - |
| 1777984504 | 20.56° C | 67% | 1013.4 hPa | 0 mm | - | - | - |
| 1777982705 | 19.44° C | 72% | 1013.3 hPa | 0 mm | - | - | - |
| 1777978504 | 16.67° C | 77% | 1013.1 hPa | 0 mm | - | - | - |
| 1777978204 | 16.67° C | 78% | 1013.2 hPa | 0 mm | - | - | - |
| 1777977904 | 16.67° C | 78% | 1013.2 hPa | 0 mm | - | - | - |
| 1777976405 | 16.67° C | 78% | 1012.9 hPa | 0 mm | - | - | - |
* Rain latest hour (hover to see other rain measurements)
** Current wind speed in m/s (hover to see current wind gust speed)